OBJECT F, 59778

Orbit data source: Space-Track

You're viewing an Uncataloged Satellite

Recently launched and/or uncataloged satellites may have evolving metadata. Metadata may include but not limited to: Owner, Maufacturer, Bus, Motor, and Mission.

OBJECT F, 59778 is a satellite owned by Sitronics (CIS) in SSO that was launched on Thu, 16 May 2024 UTC via a SOYUZ-2-1B launch vehicle from the Plesetsk Missile And Space Complex (PKMTR). Unknown objects in Earth's orbit typically refer to objects detected orbiting the Earth but have not yet been identified or cataloged. These objects could be anything from previously untracked satellites, spent rocket stages, debris from satellite collisions, or even natural meteoroids temporarily captured by Earth's gravity.

Loading next visibility...
Identifier
59778, 2024-092F
Orbit
SSO
Last TLE update
16 hours ago
Origin
Manufacturer
Sputniks
Mission
Operational spacecraft
Bus & Motor
CUBESAT 3U?, Unknown motor
Mass
3 kg wet, 3 kg dry
Launch date (UTC)
2024-05-16 (1 year ago)
Launch vehicle
SOYUZ-2-1B
Launch site
Plesetsk Missile And Space Complex (PKMTR)
Object type
Unknown
Shape & HBR
Unknown
Radar Cross Section
Small (<0.1 m²)

Expand to show TLE details & history

TLE from 16 hours ago
0 OBJECT F
1 59778U 24092F   25187.26195597  .00010179  00000-0  43259-3 0  9994
2 59778  97.6233 305.9063 0008655 291.3965  68.6347 15.23215793 62878
Epoch: 2025-07-06T06:17Z
TLE epoch observation values (Epoch: 2025-07-06T06:17:12.995Z)
Latitude
-0.00009°
Longitude
-72.88601°
Altitude
497.073 km
Speed
7.617 km/s
True Right ascension
20h 23m 37s
True Declination
0° 00' 00"
Sunlit
Object was in full shadow at epoch
Visualization orbit readout
Latitude
31.03986°
Longitude
112.403°
Altitude
504.742 km
Speed
7.612 km/s
Apparent Right ascension
05h 01m 34s
Apparent Declination
-10° 32' 00"
Sunlit
Object is in daylight
Visualization observer readout
Local Sidereal Time
10:42:26
Azimuth
258.866° W
Elevation
-3.12°
Doppler factor
1
Orbital elements
Apogee altitude
499.066 km
Perigee altitude
487.172 km
Semi-major axis
6,871.256 km
Eccentricity
0.00087
Inclination
97.6233°
RAAN
305.9063°
Arg. of periapsis
291.3965°
True anomaly
Unknown
Mean anomaly
68.6347°
Eccentric anomaly
Unknown
Mean motion
3.81056 °/min
Orbital period
94.47 mins
BSTAR
0.00043259
Loading maneuver chart data...
Loading SW <> Apogee altitude chart data...
Loading historical data...
Loading historical data...
Loading historical data...
Loading historical data...
Loading historical data...
Loading historical data...
Loading historical data...

OBJECT F Visibility forecast

Observer location: undefined°, undefined°

Span
Click to sort rows by Start time (UTC) header in descending order
Start Az.
Max El. time (UTC)
Max El. Az.
Max El.
End time (UTC)
End Az.
6 mins2025-07-07 07:38:16.111Z148.19° SSE2025-07-07 07:41:16.111Z91.865° ESE36.198°2025-07-07 07:44:16.111Z3.445° NNE
5 mins2025-07-07 20:42:16.111Z21.693° NNE2025-07-07 20:44:16.111Z95.595° ESE43.333°2025-07-07 20:47:16.111Z184.787° SSW
|